Regional Weather Roundup
Issued by NWS

Home | Current Version | Previous Version | Text Only | Print | Product List | Glossary Off
Versions: 1 2 3 4 5 6 7 8 9 10 11 12 13 14 15 16 17 18 19 20 21 22 23 24 25 26 27 28

000
ASUS45 KPSR 152310
RWRAZ

ARIZONA HOURLY REGIONAL WEATHER ROUNDUP
NATIONAL WEATHER SERVICE PHOENIX AZ
400 PM MST MON JAN 15 2018

NOTE: FAIR INDICATES FEW OR NO CLOUDS BELOW 12,000 FEET WITH NO
SIGNIFICANT WEATHER AND/OR OBSTRUCTIONS TO VISIBILITY.

AZZ001>003-036-160000-
NORTHWEST ARIZONA

CITY           SKY/WX    TMP DP  RH WIND       PRES   REMARKS
BULLHEAD CITY  SUNNY     72  34  25 N16G26    30.04S
KINGMAN        SUNNY     64  31  28 N3        30.12S
$$

AZZ004>008-015-016-018-160000-
NORTH CENTRAL ARIZONA

CITY           SKY/WX    TMP DP  RH WIND       PRES   REMARKS
GRAND CANYON   SUNNY     55  25  31 CALM      30.21R
WILLIAMS       SUNNY     55   7  14 W3        30.18S
PRESCOTT       SUNNY     64  19  17 NE6       30.13F
FLAGSTAFF      SUNNY     55  21  26 CALM      30.19S
PAYSON         SUNNY     61  18  18 SW7       30.14S
PAGE           SUNNY     52  30  43 CALM      30.19S
$$

AZZ009>014-017-160000-
NORTHEAST ARIZONA

CITY           SKY/WX    TMP DP  RH WIND       PRES   REMARKS
WINSLOW        SUNNY     57  22  25 NW9       30.16S
SAINT JOHNS    MOSUNNY   58  23  26 N7        30.15R
WINDOW ROCK    MOSUNNY   55  23  28 W10       30.17R
SHOW LOW       SUNNY     57  18  21 N7        30.20R
$$

AZZ540-542>544-546-548-160000-
GREATER PHOENIX AREA

CITY           SKY/WX    TMP DP  RH WIND       PRES   REMARKS
PHOENIX        MOSUNNY   74  28  18 CALM      30.00F
BUCKEYE        SUNNY     68  37  32 S3        30.03F
GLENDALE       MOSUNNY   73  32  21 CALM      30.03F
LUKE AFB       SUNNY     73  29  20 SW6       30.00F
DEER VALLEY    SUNNY     71  28  20 S5        30.02S
SCOTTSDALE     SUNNY     73  31  21 SW3       30.03F
MESA-FALCON    MOSUNNY   73  30  20 W6        30.02F
MESA-GATEWAY   MOSUNNY   72  30  21 CALM      30.03F
CHANDLER       SUNNY     72  28  20 CALM      30.02F
$$

AZZ539-553-160000-
SOUTHWEST MARICOPA COUNTY AND PINAL COUNTY

CITY           SKY/WX    TMP DP  RH WIND       PRES   REMARKS
CASA GRANDE    NOT AVBL
GILA BEND      FAIR      72  32  23 W3        30.02S
$$

AZZ503-504-507>509-160000-
SOUTHEAST ARIZONA

CITY           SKY/WX    TMP DP  RH WIND       PRES   REMARKS
TUCSON         SUNNY     75  23  14 N12       30.06S
DAVIS-MONTHAN  SUNNY     74  23  15 NW14      30.05R
RYAN FIELD     SUNNY     72  23  16 MISG      30.07S
NOGALES        SUNNY     73  16  11 SW8       30.09S
SIERRA VISTA   SUNNY     70  11  10 W8        30.13S
DOUGLAS        MOSUNNY   70  18  13 VRB5      30.09F
SAFFORD        MOSUNNY   68  20  16 NW6       30.07S
$$

AZZ532-160000-
SOUTHWEST ARIZONA

CITY           SKY/WX    TMP DP  RH WIND       PRES   REMARKS
YUMA           NOT AVBL
$$

CAZ041-043-047-048-061-525>527-560>570-160000-
SOUTHERN CALIFORNIA

CITY           SKY/WX    TMP DP  RH WIND       PRES   REMARKS
DOWNTOWN L.A.  NOT AVBL
L.A. AIRPORT   PTSUNNY   62  54  74 W10       30.08S
SAN DIEGO      PTSUNNY   63  56  78 NW10      30.09S
BURBANK        MOSUNNY   72  43  35 S6        30.06S
ONTARIO        CLOUDY    74  32  21 W10       30.06S
RIVERSIDE      PTSUNNY   74  36  25 W6        30.06S
PALM SPRINGS   SUNNY     78  32  18 SE3       30.04S
IMPERIAL       SUNNY     79  34  19 CALM      30.00F
BLYTHE         SUNNY     73  38  27 CALM      30.03F
NEEDLES        SUNNY     75  35  23 N12       30.05F
$$

NVZ020-UTZ003-160000-
SOUTHERN NEVADA-UTAH

CITY           SKY/WX    TMP DP  RH WIND       PRES   REMARKS
LAS VEGAS      MOSUNNY   67  34  29 NE3       30.10F
SALT LAKE CITY PTSUNNY   46  31  55 W5        30.29S
$$

NMZ009-TXZ055-160000-
NEW MEXICO-WEST TEXAS

CITY           SKY/WX    TMP DP  RH WIND       PRES   REMARKS
ALBUQUERQUE    PTSUNNY   46  22  38 E24G30    30.17R
EL PASO        CLOUDY    61  22  22 CALM      30.12S
$$


........................KEY........................
SKY/WX - SKY CONDITION/WEATHER
TMP    - TEMPERATURE IN FAHRENHEIT
DP     - DEW POINT IN FAHRENHEIT
RH     - RELATIVE HUMIDITY IN PERCENT
WIND   - DIRECTION AND SPEED IN MILES PER HOUR (MPH)
VRB    - VARIABLE WIND DIRECTION
PRES   - MEAN SEA LEVEL PRESSURE IN INCHES OF MERCURY
         F - FALLING PRESSURE   R - RISING PRESSURE
         S - STEADY PRESSURE
VSB    - VISIBILITY IN MILES
HX     - HEAT INDEX IN FAHRENHEIT
WCI    - WIND CHILL INDEX IN FAHRENHEIT
TC     - TEMPERATURE IN CELSIUS WHICH IS ALSO KNOWN AS
         TEMPERATURE IN CENTIGRADE
AFB    - AIR FORCE BASE
         LUKE AFB IS LUKE AIR FORCE BASE
         DAVIS-MONTHAN IS DAVIS-MONTHAN AIR FORCE BASE
NAS    - NAVAL AIR STATION
         EL CENTRO NAS IS EL CENTRO NAVAL AIR STATION
N/A    - NOT AVAILABLE





USA.gov is the U.S. government's official web portal to all federal, state and local government web resources and services.